This demonstration page uses our WeatherBlox Daily Observations layout. Learn more.

Left ArrowRight Arrow

34.16533, -84.80231

Hourly Observations for October 26, 2015

Temp ( °F °C ) Dew Point ( °F °C ) Humidity (%) Winds ( mph kmh ) Pressure ( in mb ) Visibility ( mi km ) Precip ( " mm )
12:53 am 00:53 Mostly Cloudy 63 17.2 62 16.7 97 97 NNE 6 9 30.08 1019 N/A 0.00 0.00
1:53 am 01:53 Cloudy with Light Rain 63 17.2 63 17.2 100 100 Calm 30.10 1019 N/A 0.03 0.76
2:53 am 02:53 Cloudy with Light Rain 63 17.2 62 16.7 97 97 Calm 30.09 1019 N/A 0.03 0.76
3:53 am 03:53 Cloudy with Light Rain 64 17.8 63 17.2 96 96 Calm 30.10 1019 N/A 0.04 1.02
4:53 am 04:53 Cloudy with Light Rain 64 17.8 63 17.2 96 96 NNE 3 6 30.09 1019 N/A 0.02 0.51
5:53 am 05:53 Cloudy with Light Rain 64 17.8 63 17.2 96 96 E 5 7 30.09 1019 N/A 0.12 3.05
6:23 am 06:23 Cloudy with Light Rain 64 17.8 63 17.2 96 96 Calm 30.09 1019 N/A 0.09 2.29
6:53 am 06:53 Cloudy with Light Rain 64 17.8 63 17.2 96 96 E 3 6 30.08 1019 N/A 0.10 2.54
7:35 am 07:35 Cloudy 64 17.8 63 17.2 96 96 E 3 6 30.09 1019 N/A 0.00 0.03
7:53 am 07:53 Cloudy 65 18.3 64 17.8 97 97 E 5 7 30.10 1019 N/A 0.00 0.03
8:53 am 08:53 Cloudy 65 18.3 64 17.8 97 97 ESE 5 7 30.11 1020 N/A 0.00 0.00
9:53 am 09:53 Cloudy with Light Rain 65 18.3 64 17.8 97 97 ENE 6 9 30.11 1020 7 11 0.07 1.78
10:28 am 10:28 Cloudy with Light Rain 65 18.3 64 17.8 97 97 VRB 7 11 30.12 1020 10 16 0.03 0.76
10:53 am 10:53 Cloudy with Light Rain 64 17.8 62 16.7 93 93 E 9 15 30.13 1020 10 16 0.04 1.02
11:53 am 11:53 Cloudy with Light Rain 62 16.7 60 15.6 93 93 ENE 9 15 30.14 1021 8 13 0.01 0.25
12:08 pm 12:08 Cloudy with Rain 61 16.1 60 15.6 97 97 E 12 19 30.15 1021 3 4 0.04 1.02
12:17 pm 12:17 Cloudy with Light Rain 61 16.1 60 15.6 97 97 ENE 9 15 30.15 1021 3 5 0.05 1.27
12:25 pm 12:25 Cloudy with Light Rain 61 16.1 60 15.6 97 97 E 10 17 30.15 1021 3 5 0.06 1.52
12:29 pm 12:29 Cloudy with Light Rain 61 16.1 59 15 93 93 E 8 13 30.15 1021 3 4 0.06 1.52
12:35 pm 12:35 Cloudy with Light Rain 61 16.1 59 15 93 93 undefined N/A 30.15 1021 3 5 0.06 1.52
12:49 pm 12:49 Cloudy with Mist and Fog 61 16 57 14 88 88 undefined N/A 30.15 1021 5 8 0.06 1.52
12:53 pm 12:53 Cloudy with Mist and Fog 60 15.6 58 14.4 93 93 undefined N/A 30.16 1021 6 10 0.06 1.52
1:16 pm 13:16 Cloudy 61 16.1 58 14.4 90 90 E 13 20 30.15 1021 10 16 0.00 0.00
1:53 pm 13:53 Cloudy 60 15.6 58 14.4 93 93 E 12 19 30.14 1021 10 16 0.00 0.00
2:53 pm 14:53 Cloudy 60 15.6 58 14.4 93 93 E 9 15 30.13 1020 10 16 0.00 0.03
3:53 pm 15:53 Cloudy with Light Rain 60 15.6 58 14.4 93 93 E 10 17 30.13 1020 10 16 0.02 0.51
4:20 pm 16:20 Cloudy with Light Rain 59 15 57 13.9 93 93 E 8 13 30.12 1020 8 13 0.01 0.25
4:27 pm 16:27 Cloudy with Light Rain 59 15 57 13.9 93 93 E 8 13 30.12 1020 6 10 0.02 0.51
4:53 pm 16:53 Cloudy with Light Rain 58 14.4 57 13.9 97 97 E 10 17 30.13 1020 6 10 0.04 1.02
5:33 pm 17:33 Cloudy with Rain 57 13.9 55 12.8 93 93 E 10 17 30.15 1021 6 10 0.04 1.02
5:50 pm 17:50 Cloudy with Light Rain 57 14 55 13 94 94 E 7 11 30.15 1021 5 8 0.08 2.03
5:53 pm 17:53 Cloudy with Light Rain 57 13.9 55 12.8 93 93 VRB 6 9 30.14 1021 6 10 0.08 2.03
6:00 pm 18:00 Cloudy with Light Rain 57 13.9 56 13.3 96 96 E 8 13 30.18 1022 6 10 0.00 0.03
6:27 pm 18:27 Cloudy with Light Rain 56 13.3 53 11.7 90 90 E 12 19 30.15 1021 10 16 0.01 0.25
6:43 pm 18:43 Cloudy with Light Rain 55 12.8 53 11.7 93 93 E 13 20 30.15 1021 10 16 0.01 0.25
6:53 pm 18:53 Cloudy with Light Rain 55 12.8 53 11.7 93 93 E 12 19 30.14 1021 10 16 0.01 0.25
7:53 pm 19:53 Cloudy with Light Rain 54 12.2 52 11.1 93 93 E 12 19 30.13 1020 10 16 0.02 0.51
8:01 pm 20:01 Cloudy with Light Rain 54 12.2 51 10.6 90 90 E 9 15 30.15 1021 10 16 0.00 0.03
8:25 pm 20:25 Cloudy with Rain 53 11.7 52 11.1 96 96 E 8 13 30.15 1021 8 13 0.04 1.02
8:53 pm 20:53 Cloudy with Light Rain 53 11.7 52 11.1 96 96 E 10 17 30.13 1020 10 16 0.08 2.03
9:53 pm 21:53 Cloudy 54 12.2 51 10.6 90 90 ESE 9 15 30.14 1021 10 16 0.03 0.76
10:53 pm 22:53 Cloudy 54 12.2 51 10.6 90 90 E 14 22 30.15 1021 10 16 0.00 0.00
11:53 pm 23:53 Cloudy 53 11.7 50 10 89 89 E 14 22 30.15 1021 10 16 0.00 0.00

Powered by AerisWeather